| time (UTC) | temp C | wind direction | speed KPH | gust KPH | rain 1hr cm | rain 24hr cm | rain mn cm | humidity % | barometer mb |
| 20260505140548 | 26 | 135 | 16.1 | 19.3 | 0.00 | 0.00 | 0.00 | 100 | 1018.1 |
| 20260505124832 | 23 | 120 | 6.4 | 14.5 | 0.00 | 0.00 | 0.00 | 100 | 1017.9 |
| 20260505124548 | 23 | 120 | 6.4 | 14.5 | 0.00 | 0.00 | 0.00 | 100 | 1017.9 |
| 20260505124048 | 23 | 81 | 4.8 | 12.9 | 0.00 | 0.00 | 0.00 | 100 | 1017.9 |
| 20260505123834 | 23 | 80 | 6.4 | 12.9 | 0.00 | 0.00 | 0.00 | 100 | 1017.9 |
| 20260505123634 | 22 | 91 | 6.4 | 11.3 | 0.00 | 0.00 | 0.00 | 100 | 1017.9 |
| 20260505123548 | 23 | 80 | 6.4 | 12.9 | 0.00 | 0.00 | 0.00 | 100 | 1017.9 |
| 20260505123513 | 22 | 91 | 6.4 | 11.3 | 0.00 | 0.00 | 0.00 | 100 | 1017.9 |
| 20260505123048 | 22 | 91 | 6.4 | 11.3 | 0.00 | 0.00 | 0.00 | 100 | 1017.9 |
| 20260505123022 | 22 | 94 | 9.7 | 11.3 | 0.00 | 0.00 | 0.00 | 100 | 1018.0 |
| 20260505122548 | 22 | 94 | 9.7 | 11.3 | 0.00 | 0.00 | 0.00 | 100 | 1018.0 |
| 20260505122048 | 22 | 149 | 9.7 | 12.9 | 0.00 | 0.00 | 0.00 | 100 | 1017.9 |
| 20260505121738 | 21 | 144 | 3.2 | 11.3 | 0.00 | 0.00 | 0.00 | 100 | 1017.7 |
| 20260505121548 | 22 | 118 | 4.8 | 9.7 | 0.00 | 0.00 | 0.00 | 100 | 1017.9 |
| 20260505121048 | 22 | 87 | 4.8 | 8.0 | 0.00 | 0.00 | 0.00 | 100 | 1017.9 |
| 20260505120617 | 21 | 144 | 3.2 | 11.3 | 0.00 | 0.00 | 0.00 | 100 | 1017.7 |
| 20260505120548 | 21 | 106 | 4.8 | 9.7 | 0.00 | 0.00 | 0.00 | 100 | 1017.8 |
| 20260505120048 | 21 | 144 | 3.2 | 11.3 | 0.00 | 0.00 | 0.00 | 100 | 1017.7 |
| 20260505115548 | 21 | 91 | 8.0 | 11.3 | 0.00 | 0.00 | 0.00 | 100 | 1017.7 |
| 20260505115048 | 21 | 109 | 4.8 | 9.7 | 0.00 | 0.00 | 0.00 | 100 | 1017.6 |
| 20260505114548 | 20 | 67 | 3.2 | 9.7 | 0.00 | 0.00 | 0.00 | 100 | 1017.5 |
| 20260505114229 | 20 | 71 | 4.8 | 8.0 | 0.00 | 0.00 | 0.00 | 100 | 1017.4 |
| 20260505114048 | 20 | 71 | 4.8 | 8.0 | 0.00 | 0.00 | 0.00 | 100 | 1017.4 |
| 20260505113548 | 20 | 97 | 1.6 | 6.4 | 0.00 | 0.00 | 0.00 | 100 | 1017.2 |
| 20260505113412 | 19 | 66 | 0.0 | 0.0 | 0.00 | 0.00 | 0.00 | 100 | 1017.1 |
| 20260505113136 | 18 | 66 | 0.0 | 0.0 | 0.00 | 0.00 | 0.00 | 100 | 1017.2 |
| 20260505113048 | 19 | 66 | 0.0 | 0.0 | 0.00 | 0.00 | 0.00 | 100 | 1017.1 |
| 20260505113040 | 18 | 85 | 0.0 | 4.8 | 0.00 | 0.00 | 0.00 | 100 | 1017.0 |
| 20260505112548 | 18 | 66 | 0.0 | 0.0 | 0.00 | 0.00 | 0.00 | 100 | 1017.2 |
| 20260505112059 | 18 | 75 | 0.0 | 6.4 | 0.00 | 0.00 | 0.00 | 100 | 1017.1 |
| 20260505112048 | 18 | 85 | 0.0 | 4.8 | 0.00 | 0.00 | 0.00 | 100 | 1017.0 |
| 20260505111852 | 18 | 75 | 0.0 | 6.4 | 0.00 | 0.00 | 0.00 | 100 | 1017.1 |
| 20260505111548 | 18 | 75 | 0.0 | 6.4 | 0.00 | 0.00 | 0.00 | 100 | 1017.1 |
| 20260505111048 | 18 | 88 | 3.2 | 8.0 | 0.00 | 0.00 | 0.00 | 100 | 1016.9 |
| 20260505110548 | 18 | 57 | 4.8 | 8.0 | 0.00 | 0.00 | 0.00 | 100 | 1017.0 |
| 20260505102215 | 17 | 47 | 0.0 | 4.8 | 0.00 | 0.00 | 0.00 | 100 | 1016.8 |
| 20260505102049 | 17 | 47 | 0.0 | 4.8 | 0.00 | 0.00 | 0.00 | 100 | 1016.8 |
| 20260505101828 | 17 | 70 | 0.0 | 0.0 | 0.00 | 0.00 | 0.00 | 100 | 1016.6 |
| 20260505101549 | 17 | 67 | 1.6 | 4.8 | 0.00 | 0.00 | 0.00 | 100 | 1016.7 |
| 20260505101049 | 17 | 70 | 0.0 | 0.0 | 0.00 | 0.00 | 0.00 | 100 | 1016.6 |
| 20260505101027 | 17 | 70 | 0.0 | 0.0 | 0.00 | 0.00 | 0.00 | 100 | 1016.5 |
| 20260505100821 | 17 | 70 | 0.0 | 0.0 | 0.00 | 0.00 | 0.00 | 100 | 1016.7 |
| 20260505100549 | 17 | 70 | 0.0 | 0.0 | 0.00 | 0.00 | 0.00 | 100 | 1016.7 |
| 20260505100049 | 17 | 70 | 0.0 | 0.0 | 0.00 | 0.00 | 0.00 | 100 | 1016.6 |
| 20260505095549 | 17 | 70 | 0.0 | 0.0 | 0.00 | 0.00 | 0.00 | 100 | 1016.5 |
| 20260505095455 | 17 | 70 | 0.0 | 0.0 | 0.00 | 0.00 | 0.00 | 100 | 1016.5 |
| 20260505095054 | 17 | 33 | 0.0 | 4.8 | 0.00 | 0.00 | 0.00 | 100 | 1016.5 |
| 20260505095049 | 17 | 70 | 0.0 | 0.0 | 0.00 | 0.00 | 0.00 | 100 | 1016.5 |
| 20260505094549 | 17 | 33 | 0.0 | 4.8 | 0.00 | 0.00 | 0.00 | 100 | 1016.5 |
| 20260505094049 | 17 | 68 | 3.2 | 4.8 | 0.00 | 0.00 | 0.00 | 100 | 1016.5 |
| 20260505093549 | 17 | 53 | 0.0 | 4.8 | 0.00 | 0.00 | 0.00 | 100 | 1016.4 |
| 20260505093255 | 17 | 95 | 1.6 | 3.2 | 0.00 | 0.00 | 0.00 | 100 | 1016.4 |
| 20260505093049 | 17 | 95 | 1.6 | 3.2 | 0.00 | 0.00 | 0.00 | 100 | 1016.4 |
| 20260505092549 | 17 | 95 | 1.6 | 3.2 | 0.00 | 0.00 | 0.00 | 100 | 1016.4 |
| 20260505092049 | 17 | 73 | 0.0 | 4.8 | 0.00 | 0.00 | 0.00 | 100 | 1016.4 |
| 20260505091549 | 17 | 59 | 0.0 | 4.8 | 0.00 | 0.00 | 0.00 | 100 | 1016.3 |
| 20260505091335 | 17 | 59 | 1.6 | 4.8 | 0.00 | 0.00 | 0.00 | 100 | 1016.2 |
| 20260505091049 | 17 | 59 | 1.6 | 4.8 | 0.00 | 0.00 | 0.00 | 100 | 1016.2 |
| 20260505090549 | 17 | 94 | 1.6 | 3.2 | 0.00 | 0.00 | 0.00 | 100 | 1016.2 |
| 20260505090509 | 17 | 111 | 1.6 | 4.8 | 0.00 | 0.00 | 0.00 | 100 | 1016.3 |
| 20260505090049 | 17 | 111 | 1.6 | 4.8 | 0.00 | 0.00 | 0.00 | 100 | 1016.3 |
| 20260505090010 | 17 | 46 | 0.0 | 3.2 | 0.00 | 0.00 | 0.00 | 100 | 1016.3 |
| 20260505085935 | 17 | 46 | 0.0 | 3.2 | 0.00 | 0.00 | 0.00 | 100 | 1016.3 |
| 20260505085549 | 17 | 46 | 0.0 | 3.2 | 0.00 | 0.00 | 0.00 | 100 | 1016.3 |
| 20260505085509 | 17 | 99 | 1.6 | 4.8 | 0.00 | 0.00 | 0.00 | 100 | 1016.2 |
| 20260505085059 | 18 | 81 | 0.0 | 1.6 | 0.00 | 0.00 | 0.00 | 100 | 1016.3 |
| 20260505085049 | 17 | 99 | 1.6 | 4.8 | 0.00 | 0.00 | 0.00 | 100 | 1016.2 |
| 20260505084802 | 18 | 81 | 0.0 | 1.6 | 0.00 | 0.00 | 0.00 | 100 | 1016.3 |
| 20260505084549 | 18 | 81 | 0.0 | 1.6 | 0.00 | 0.00 | 0.00 | 100 | 1016.3 |
| 20260505084513 | 18 | 64 | 0.0 | 1.6 | 0.00 | 0.00 | 0.00 | 100 | 1016.4 |
| 20260505084049 | 18 | 64 | 0.0 | 1.6 | 0.00 | 0.00 | 0.00 | 100 | 1016.4 |
| 20260505083549 | 18 | 40 | 0.0 | 1.6 | 0.00 | 0.00 | 0.00 | 100 | 1016.4 |
| 20260505083435 | 18 | 74 | 0.0 | 4.8 | 0.00 | 0.00 | 0.00 | 100 | 1016.2 |
| 20260505083202 | 18 | 87 | 3.2 | 6.4 | 0.00 | 0.00 | 0.00 | 100 | 1016.2 |
| 20260505083049 | 18 | 74 | 0.0 | 4.8 | 0.00 | 0.00 | 0.00 | 100 | 1016.2 |
| 20260505082549 | 18 | 81 | 3.2 | 4.8 | 0.00 | 0.00 | 0.00 | 100 | 1016.2 |
| 20260505082505 | 18 | 87 | 3.2 | 6.4 | 0.00 | 0.00 | 0.00 | 100 | 1016.2 |
| 20260505082049 | 18 | 87 | 3.2 | 6.4 | 0.00 | 0.00 | 0.00 | 100 | 1016.2 |
| 20260505081549 | 18 | 64 | 3.2 | 6.4 | 0.00 | 0.00 | 0.00 | 100 | 1016.2 |
| 20260505081323 | 18 | 97 | 1.6 | 4.8 | 0.00 | 0.00 | 0.00 | 100 | 1016.1 |
| 20260505081049 | 18 | 97 | 1.6 | 4.8 | 0.00 | 0.00 | 0.00 | 100 | 1016.1 |
| 20260505081006 | 18 | 112 | 4.8 | 4.8 | 0.00 | 0.00 | 0.00 | 100 | 1016.2 |
| 20260505080549 | 18 | 112 | 4.8 | 4.8 | 0.00 | 0.00 | 0.00 | 100 | 1016.2 |
| 20260505080515 | 18 | 104 | 1.6 | 3.2 | 0.00 | 0.00 | 0.00 | 100 | 1016.3 |
| 20260505080049 | 18 | 104 | 1.6 | 3.2 | 0.00 | 0.00 | 0.00 | 100 | 1016.3 |
| 20260505075549 | 18 | 73 | 0.0 | 1.6 | 0.00 | 0.00 | 0.00 | 100 | 1016.4 |
| 20260505075059 | 18 | 63 | 0.0 | 0.0 | 0.00 | 0.00 | 0.00 | 100 | 1016.6 |
| 20260505075049 | 18 | 63 | 0.0 | 0.0 | 0.00 | 0.00 | 0.00 | 100 | 1016.5 |
| 20260505074549 | 18 | 63 | 0.0 | 0.0 | 0.00 | 0.00 | 0.00 | 100 | 1016.6 |
| 20260505074156 | 18 | 45 | 0.0 | 3.2 | 0.00 | 0.00 | 0.00 | 100 | 1016.6 |
| 20260505074049 | 18 | 45 | 0.0 | 3.2 | 0.00 | 0.00 | 0.00 | 100 | 1016.6 |
| 20260505074019 | 18 | 57 | 0.0 | 1.6 | 0.00 | 0.00 | 0.00 | 100 | 1016.4 |
| 20260505073631 | 18 | 53 | 0.0 | 4.8 | 0.00 | 0.00 | 0.00 | 100 | 1016.6 |
| 20260505073555 | 18 | 53 | 0.0 | 4.8 | 0.00 | 0.00 | 0.00 | 100 | 1016.6 |
| 20260505073549 | 18 | 57 | 0.0 | 1.6 | 0.00 | 0.00 | 0.00 | 100 | 1016.4 |
| 20260505073519 | 18 | 53 | 0.0 | 4.8 | 0.00 | 0.00 | 0.00 | 100 | 1016.6 |
| 20260505073049 | 18 | 53 | 0.0 | 4.8 | 0.00 | 0.00 | 0.00 | 100 | 1016.6 |
| 20260505073014 | 18 | 73 | 1.6 | 3.2 | 0.00 | 0.00 | 0.00 | 100 | 1016.6 |
| 20260505072914 | 18 | 73 | 1.6 | 3.2 | 0.00 | 0.00 | 0.00 | 100 | 1016.6 |
| 20260505072549 | 18 | 73 | 1.6 | 3.2 | 0.00 | 0.00 | 0.00 | 100 | 1016.6 |
| 20260505072516 | 18 | 84 | 1.6 | 4.8 | 0.00 | 0.00 | 0.00 | 100 | 1016.5 |
| 20260505072155 | 18 | 60 | 0.0 | 8.0 | 0.00 | 0.00 | 0.00 | 100 | 1016.4 |
| 20260505072049 | 18 | 84 | 1.6 | 4.8 | 0.00 | 0.00 | 0.00 | 100 | 1016.5 |
| 20260505071549 | 18 | 68 | 0.0 | 6.4 | 0.00 | 0.00 | 0.00 | 100 | 1016.5 |
| 20260505071454 | 18 | 60 | 0.0 | 8.0 | 0.00 | 0.00 | 0.00 | 100 | 1016.4 |
| 20260505071049 | 18 | 60 | 0.0 | 8.0 | 0.00 | 0.00 | 0.00 | 100 | 1016.4 |
| 20260505070839 | 19 | 50 | 3.2 | 4.8 | 0.00 | 0.00 | 0.00 | 100 | 1016.4 |
| 20260505070549 | 19 | 50 | 3.2 | 4.8 | 0.00 | 0.00 | 0.00 | 100 | 1016.4 |
| 20260505070532 | 19 | 112 | 1.6 | 6.4 | 0.00 | 0.00 | 0.00 | 100 | 1016.6 |
| 20260505070050 | 19 | 112 | 1.6 | 6.4 | 0.00 | 0.00 | 0.00 | 100 | 1016.6 |
| 20260505065550 | 19 | 84 | 1.6 | 8.0 | 0.00 | 0.00 | 0.00 | 100 | 1016.8 |
| 20260505065521 | 19 | 81 | 4.8 | 6.4 | 0.00 | 0.00 | 0.00 | 100 | 1016.6 |
| 20260505065050 | 19 | 81 | 4.8 | 6.4 | 0.00 | 0.00 | 0.00 | 100 | 1016.6 |
| 20260505064550 | 19 | 81 | 3.2 | 6.4 | 0.00 | 0.00 | 0.00 | 100 | 1016.7 |
| 20260505064208 | 19 | 70 | 3.2 | 6.4 | 0.00 | 0.00 | 0.00 | 100 | 1016.8 |
| 20260505064050 | 19 | 70 | 3.2 | 6.4 | 0.00 | 0.00 | 0.00 | 100 | 1016.8 |
| 20260505063937 | 19 | 52 | 0.0 | 4.8 | 0.00 | 0.00 | 0.00 | 100 | 1016.9 |
| 20260505063550 | 19 | 52 | 0.0 | 4.8 | 0.00 | 0.00 | 0.00 | 100 | 1016.9 |
| 20260505063455 | 19 | 71 | 3.2 | 8.0 | 0.00 | 0.00 | 0.00 | 100 | 1017.0 |
| 20260505063349 | 19 | 71 | 3.2 | 8.0 | 0.00 | 0.00 | 0.00 | 100 | 1017.0 |
| 20260505063050 | 19 | 71 | 3.2 | 8.0 | 0.00 | 0.00 | 0.00 | 100 | 1017.0 |
| 20260505063015 | 20 | 90 | 1.6 | 6.4 | 0.00 | 0.00 | 0.00 | 100 | 1017.2 |
| 20260505062634 | 20 | 104 | 3.2 | 6.4 | 0.00 | 0.00 | 0.00 | 100 | 1017.5 |
| 20260505062550 | 20 | 90 | 1.6 | 6.4 | 0.00 | 0.00 | 0.00 | 100 | 1017.2 |
| 20260505062112 | 20 | 71 | 4.8 | 6.4 | 0.00 | 0.00 | 0.00 | 100 | 1017.4 |
| 20260505062050 | 20 | 104 | 3.2 | 6.4 | 0.00 | 0.00 | 0.00 | 100 | 1017.5 |
| 20260505062007 | 20 | 45 | 3.2 | 4.8 | 0.00 | 0.00 | 0.00 | 100 | 1017.3 |
| 20260505061550 | 20 | 45 | 3.2 | 4.8 | 0.00 | 0.00 | 0.00 | 100 | 1017.3 |
| 20260505061345 | 20 | 80 | 3.2 | 8.0 | 0.00 | 0.00 | 0.00 | 100 | 1017.4 |
| 20260505061050 | 20 | 80 | 3.2 | 8.0 | 0.00 | 0.00 | 0.00 | 100 | 1017.4 |
| 20260505060607 | 20 | 63 | 1.6 | 6.4 | 0.00 | 0.00 | 0.00 | 100 | 1017.4 |
| 20260505060550 | 20 | 88 | 1.6 | 4.8 | 0.00 | 0.00 | 0.00 | 100 | 1017.5 |
| 20260505060050 | 20 | 63 | 1.6 | 6.4 | 0.00 | 0.00 | 0.00 | 100 | 1017.4 |
| 20260505055550 | 20 | 71 | 4.8 | 6.4 | 0.00 | 0.00 | 0.00 | 100 | 1017.4 |
| 20260505055459 | 20 | 47 | 1.6 | 9.7 | 0.00 | 0.00 | 0.00 | 100 | 1017.3 |
| 20260505055050 | 20 | 47 | 1.6 | 9.7 | 0.00 | 0.00 | 0.00 | 100 | 1017.3 |
| 20260505054550 | 20 | 67 | 3.2 | 6.4 | 0.00 | 0.00 | 0.00 | 100 | 1017.5 |
| 20260505054050 | 20 | 28 | 0.0 | 8.0 | 0.00 | 0.00 | 0.00 | 100 | 1017.5 |
| 20260505053550 | 20 | 80 | 1.6 | 4.8 | 0.00 | 0.00 | 0.00 | 100 | 1017.8 |
| 20260505053135 | 20 | 112 | 1.6 | 6.4 | 0.00 | 0.00 | 0.00 | 100 | 1017.7 |
| 20260505053050 | 20 | 88 | 0.0 | 4.8 | 0.00 | 0.00 | 0.00 | 100 | 1017.7 |
| 20260505052550 | 20 | 112 | 1.6 | 6.4 | 0.00 | 0.00 | 0.00 | 100 | 1017.7 |
| 20260505052312 | 19 | 47 | 1.6 | 3.2 | 0.00 | 0.00 | 0.00 | 100 | 1017.8 |
| 20260505052050 | 20 | 40 | 0.0 | 4.8 | 0.00 | 0.00 | 0.00 | 100 | 1017.8 |
| 20260505051550 | 19 | 47 | 1.6 | 3.2 | 0.00 | 0.00 | 0.00 | 100 | 1017.8 |
| 20260505051506 | 19 | 1 | 0.0 | 4.8 | 0.00 | 0.00 | 0.00 | 100 | 1017.7 |
| 20260505051050 | 19 | 1 | 0.0 | 4.8 | 0.00 | 0.00 | 0.00 | 100 | 1017.7 |
| 20260505050704 | 19 | 64 | 3.2 | 6.4 | 0.00 | 0.00 | 0.00 | 100 | 1017.7 |
| 20260505050550 | 19 | 64 | 3.2 | 6.4 | 0.00 | 0.00 | 0.00 | 100 | 1017.7 |
| 20260505050439 | 19 | 71 | 4.8 | 4.8 | 0.00 | 0.00 | 0.00 | 100 | 1017.9 |
| 20260505041724 | 20 | 111 | 4.8 | 4.8 | 0.00 | 0.00 | 0.00 | 100 | 1017.9 |
| 20260505041550 | 20 | 85 | 0.0 | 4.8 | 0.00 | 0.00 | 0.00 | 100 | 1018.0 |
| 20260505041050 | 20 | 111 | 4.8 | 4.8 | 0.00 | 0.00 | 0.00 | 100 | 1017.9 |
| 20260505041038 | 20 | 81 | 1.6 | 3.2 | 0.00 | 0.00 | 0.00 | 100 | 1018.1 |
| 20260505040550 | 20 | 81 | 1.6 | 3.2 | 0.00 | 0.00 | 0.00 | 100 | 1018.1 |
| 20260505040050 | 20 | 87 | 1.6 | 4.8 | 0.00 | 0.00 | 0.00 | 100 | 1018.0 |
| 20260505035956 | 20 | 59 | 1.6 | 4.8 | 0.00 | 0.00 | 0.00 | 100 | 1018.0 |
| 20260505035708 | 20 | 59 | 1.6 | 4.8 | 0.00 | 0.00 | 0.00 | 100 | 1018.0 |
| 20260505035550 | 20 | 59 | 1.6 | 4.8 | 0.00 | 0.00 | 0.00 | 100 | 1018.0 |
| 20260505035050 | 20 | 102 | 1.6 | 4.8 | 0.00 | 0.00 | 0.00 | 100 | 1018.0 |
| 20260505034734 | 20 | 81 | 3.2 | 6.4 | 0.00 | 0.00 | 0.00 | 100 | 1018.1 |
| 20260505034550 | 20 | 81 | 3.2 | 6.4 | 0.00 | 0.00 | 0.00 | 100 | 1018.1 |
| 20260505034307 | 20 | 104 | 4.8 | 6.4 | 0.00 | 0.00 | 0.00 | 100 | 1018.2 |
| 20260505034050 | 20 | 75 | 3.2 | 4.8 | 0.00 | 0.00 | 0.00 | 100 | 1018.2 |
| 20260505033634 | 20 | 82 | 4.8 | 6.4 | 0.00 | 0.00 | 0.00 | 100 | 1018.2 |
| 20260505033550 | 20 | 104 | 4.8 | 6.4 | 0.00 | 0.00 | 0.00 | 100 | 1018.2 |
| 20260505033504 | 20 | 81 | 1.6 | 6.4 | 0.00 | 0.00 | 0.00 | 100 | 1018.2 |
| 20260505033050 | 20 | 82 | 4.8 | 6.4 | 0.00 | 0.00 | 0.00 | 100 | 1018.2 |
| 20260505033015 | 20 | 81 | 1.6 | 6.4 | 0.00 | 0.00 | 0.00 | 100 | 1018.2 |
| 20260505032550 | 20 | 81 | 1.6 | 6.4 | 0.00 | 0.00 | 0.00 | 100 | 1018.2 |
| 20260505032305 | 21 | 78 | 1.6 | 4.8 | 0.00 | 0.00 | 0.00 | 100 | 1018.2 |
| 20260505032050 | 21 | 78 | 1.6 | 4.8 | 0.00 | 0.00 | 0.00 | 100 | 1018.2 |
| 20260505031737 | 21 | 43 | 3.2 | 4.8 | 0.00 | 0.00 | 0.00 | 100 | 1018.4 |
| 20260505031550 | 21 | 91 | 3.2 | 4.8 | 0.00 | 0.00 | 0.00 | 100 | 1018.2 |
| 20260505031458 | 21 | 43 | 3.2 | 4.8 | 0.00 | 0.00 | 0.00 | 100 | 1018.4 |
| 20260505031050 | 21 | 43 | 3.2 | 4.8 | 0.00 | 0.00 | 0.00 | 100 | 1018.4 |
| 20260505030841 | 21 | 126 | 3.2 | 8.0 | 0.00 | 0.00 | 0.00 | 100 | 1018.3 |
| 20260505030708 | 21 | 101 | 3.2 | 9.7 | 0.00 | 0.00 | 0.00 | 100 | 1018.3 |
| 20260505030550 | 21 | 81 | 0.0 | 6.4 | 0.00 | 0.00 | 0.00 | 100 | 1018.4 |
| 20260505030050 | 21 | 126 | 3.2 | 8.0 | 0.00 | 0.00 | 0.00 | 100 | 1018.3 |
| 20260505025551 | 21 | 95 | 4.8 | 8.0 | 0.00 | 0.00 | 0.00 | 100 | 1018.3 |
| 20260505025051 | 21 | 101 | 3.2 | 9.7 | 0.00 | 0.00 | 0.00 | 100 | 1018.3 |
| 20260505024551 | 21 | 60 | 6.4 | 12.9 | 0.00 | 0.00 | 0.00 | 100 | 1018.1 |
| 20260505024227 | 21 | 130 | 4.8 | 12.9 | 0.00 | 0.00 | 0.00 | 100 | 1018.0 |
| 20260505024051 | 21 | 130 | 4.8 | 12.9 | 0.00 | 0.00 | 0.00 | 100 | 1018.0 |
| 20260505023551 | 21 | 119 | 8.0 | 12.9 | 0.00 | 0.00 | 0.00 | 100 | 1018.0 |
| 20260505023457 | 22 | 102 | 6.4 | 11.3 | 0.00 | 0.00 | 0.00 | 100 | 1018.0 |
| 20260505023051 | 22 | 102 | 6.4 | 11.3 | 0.00 | 0.00 | 0.00 | 100 | 1018.0 |
| 20260505022551 | 21 | 105 | 3.2 | 9.7 | 0.00 | 0.00 | 0.00 | 100 | 1018.0 |
| 20260505022051 | 22 | 56 | 4.8 | 12.9 | 0.00 | 0.00 | 0.00 | 100 | 1018.0 |
| 20260505022008 | 22 | 67 | 6.4 | 11.3 | 0.00 | 0.00 | 0.00 | 100 | 1017.9 |
| 20260505021551 | 22 | 67 | 6.4 | 11.3 | 0.00 | 0.00 | 0.00 | 100 | 1017.9 |
| 20260505021051 | 22 | 98 | 6.4 | 11.3 | 0.00 | 0.00 | 0.00 | 100 | 1017.9 |
| 20260505021008 | 22 | 66 | 8.0 | 12.9 | 0.00 | 0.00 | 0.00 | 100 | 1017.9 |
| 20260505020551 | 22 | 66 | 8.0 | 12.9 | 0.00 | 0.00 | 0.00 | 100 | 1017.9 |
| 20260505020051 | 22 | 80 | 11.3 | 14.5 | 0.00 | 0.00 | 0.00 | 100 | 1017.8 |
| 20260505015912 | 22 | 97 | 8.0 | 14.5 | 0.00 | 0.00 | 0.00 | 100 | 1018.0 |
| 20260505015722 | 22 | 118 | 4.8 | 11.3 | 0.00 | 0.00 | 0.00 | 100 | 1017.9 |
| 20260505015551 | 22 | 97 | 8.0 | 14.5 | 0.00 | 0.00 | 0.00 | 100 | 1018.0 |
| 20260505015051 | 22 | 118 | 4.8 | 11.3 | 0.00 | 0.00 | 0.00 | 100 | 1017.9 |
| 20260505015008 | 22 | 115 | 8.0 | 14.5 | 0.00 | 0.00 | 0.00 | 100 | 1017.9 |
| 20260505014740 | 22 | 104 | 6.4 | 12.9 | 0.00 | 0.00 | 0.00 | 100 | 1017.8 |
| 20260505014551 | 22 | 115 | 8.0 | 14.5 | 0.00 | 0.00 | 0.00 | 100 | 1017.9 |
| 20260505014051 | 22 | 104 | 6.4 | 12.9 | 0.00 | 0.00 | 0.00 | 100 | 1017.8 |
| 20260505013935 | 23 | 94 | 6.4 | 11.3 | 0.00 | 0.00 | 0.00 | 100 | 1017.6 |
| 20260505013557 | 22 | 71 | 8.0 | 17.7 | 0.00 | 0.00 | 0.00 | 100 | 1017.4 |
| 20260505013551 | 23 | 94 | 6.4 | 11.3 | 0.00 | 0.00 | 0.00 | 100 | 1017.6 |
| 20260505013220 | 22 | 71 | 8.0 | 17.7 | 0.00 | 0.00 | 0.00 | 100 | 1017.4 |
| 20260505013217 | 22 | 85 | 6.4 | 12.9 | 0.00 | 0.00 | 0.00 | 100 | 1017.6 |
| 20260505013051 | 22 | 71 | 8.0 | 17.7 | 0.00 | 0.00 | 0.00 | 100 | 1017.4 |
| 20260505012551 | 22 | 85 | 6.4 | 12.9 | 0.00 | 0.00 | 0.00 | 100 | 1017.6 |
| 20260505012051 | 22 | 57 | 3.2 | 12.9 | 0.00 | 0.00 | 0.00 | 100 | 1017.7 |
| 20260505012012 | 23 | 108 | 4.8 | 12.9 | 0.00 | 0.00 | 0.00 | 100 | 1017.6 |
| 20260505011551 | 23 | 108 | 4.8 | 12.9 | 0.00 | 0.00 | 0.00 | 100 | 1017.6 |
| 20260505011137 | 23 | 118 | 9.7 | 12.9 | 0.00 | 0.00 | 0.00 | 100 | 1017.3 |
| 20260505011051 | 23 | 81 | 9.7 | 12.9 | 0.00 | 0.00 | 0.00 | 100 | 1017.4 |
| 20260505010551 | 23 | 118 | 9.7 | 12.9 | 0.00 | 0.00 | 0.00 | 100 | 1017.3 |
| 20260505010051 | 23 | 88 | 8.0 | 11.3 | 0.00 | 0.00 | 0.00 | 100 | 1017.3 |
| 20260505005551 | 23 | 115 | 6.4 | 16.1 | 0.00 | 0.00 | 0.00 | 100 | 1017.3 |
| 20260505005138 | 23 | 88 | 11.3 | 16.1 | 0.00 | 0.00 | 0.00 | 100 | 1017.3 |
| 20260505005051 | 23 | 91 | 8.0 | 14.5 | 0.00 | 0.00 | 0.00 | 100 | 1017.2 |
| 20260505004551 | 23 | 88 | 11.3 | 16.1 | 0.00 | 0.00 | 0.00 | 100 | 1017.3 |
| 20260505004051 | 23 | 119 | 4.8 | 17.7 | 0.00 | 0.00 | 0.00 | 100 | 1017.1 |
| 20260505003948 | 24 | 102 | 8.0 | 16.1 | 0.00 | 0.00 | 0.00 | 100 | 1017.1 |
| 20260505003551 | 24 | 126 | 9.7 | 17.7 | 0.00 | 0.00 | 0.00 | 100 | 1017.2 |
| 20260505003051 | 24 | 102 | 8.0 | 16.1 | 0.00 | 0.00 | 0.00 | 100 | 1017.1 |
| 20260505002551 | 24 | 111 | 11.3 | 16.1 | 0.00 | 0.00 | 0.00 | 100 | 1017.1 |
| 20260505002051 | 24 | 116 | 4.8 | 20.9 | 0.00 | 0.00 | 0.00 | 100 | 1017.1 |
| 20260505002049 | 25 | 119 | 8.0 | 14.5 | 0.00 | 0.00 | 0.00 | 100 | 1016.9 |
| 20260505001551 | 25 | 119 | 8.0 | 14.5 | 0.00 | 0.00 | 0.00 | 100 | 1016.9 |
| 20260505001459 | 24 | 59 | 6.4 | 22.5 | 0.00 | 0.00 | 0.00 | 100 | 1016.5 |
| 20260505001051 | 24 | 105 | 9.7 | 17.7 | 0.00 | 0.00 | 0.00 | 100 | 1016.7 |
| 20260505000551 | 24 | 59 | 6.4 | 22.5 | 0.00 | 0.00 | 0.00 | 100 | 1016.5 |
| 20260505000051 | 25 | 91 | 14.5 | 17.7 | 0.00 | 0.00 | 0.00 | 100 | 1016.3 |
| 20260505000011 | 25 | 116 | 12.9 | 16.1 | 0.00 | 0.00 | 0.00 | 100 | 1016.3 |
| 20260504235604 | 25 | 105 | 9.7 | 19.3 | 0.00 | 0.00 | 0.00 | 100 | 1016.3 |
| 20260504235551 | 25 | 116 | 12.9 | 16.1 | 0.00 | 0.00 | 0.00 | 100 | 1016.3 |
| 20260504235051 | 25 | 105 | 9.7 | 19.3 | 0.00 | 0.00 | 0.00 | 100 | 1016.3 |
| 20260504234944 | 25 | 91 | 14.5 | 16.1 | 0.00 | 0.00 | 0.00 | 100 | 1015.9 |
| 20260504234551 | 25 | 95 | 9.7 | 16.1 | 0.00 | 0.00 | 0.00 | 100 | 1016.2 |
| 20260504234051 | 25 | 57 | 4.8 | 14.5 | 0.00 | 0.00 | 0.00 | 100 | 1016.2 |
| 20260504233551 | 25 | 109 | 11.3 | 16.1 | 0.00 | 0.00 | 0.00 | 100 | 1016.0 |
| 20260504233051 | 25 | 91 | 14.5 | 16.1 | 0.00 | 0.00 | 0.00 | 100 | 1015.9 |
| 20260504233046 | 26 | 91 | 12.9 | 19.3 | 0.00 | 0.00 | 0.00 | 100 | 1015.9 |
| 20260504232600 | 26 | 92 | 9.7 | 16.1 | 0.00 | 0.00 | 0.00 | 100 | 1016.0 |
| 20260504232551 | 26 | 147 | 8.0 | 16.1 | 0.00 | 0.00 | 0.00 | 100 | 1015.9 |
| 20260504232051 | 26 | 92 | 9.7 | 16.1 | 0.00 | 0.00 | 0.00 | 100 | 1016.0 |
| 20260504231551 | 26 | 95 | 4.8 | 16.1 | 0.00 | 0.00 | 0.00 | 100 | 1015.9 |
| 20260504231456 | 26 | 136 | 6.4 | 14.5 | 0.00 | 0.00 | 0.00 | 100 | 1016.0 |
| 20260504231051 | 26 | 136 | 6.4 | 14.5 | 0.00 | 0.00 | 0.00 | 100 | 1016.0 |
| 20260504230552 | 26 | 91 | 12.9 | 19.3 | 0.00 | 0.00 | 0.00 | 100 | 1015.9 |
| 20260504230426 | 26 | 140 | 12.9 | 19.3 | 0.00 | 0.00 | 0.00 | 100 | 1015.8 |
| 20260504230052 | 26 | 140 | 12.9 | 19.3 | 0.00 | 0.00 | 0.00 | 100 | 1015.8 |
| 20260504230046 | 27 | 119 | 9.7 | 17.7 | 0.00 | 0.00 | 0.00 | 100 | 1015.6 |
| 20260504225552 | 26 | 120 | 6.4 | 19.3 | 0.00 | 0.00 | 0.00 | 100 | 1015.5 |
| 20260504225052 | 27 | 119 | 9.7 | 17.7 | 0.00 | 0.00 | 0.00 | 100 | 1015.6 |
| 20260504224812 | 27 | 78 | 11.3 | 24.1 | 0.00 | 0.00 | 0.00 | 100 | 1015.6 |
| 20260504224552 | 27 | 78 | 11.3 | 24.1 | 0.00 | 0.00 | 0.00 | 100 | 1015.6 |
| 20260504224052 | 27 | 122 | 9.7 | 14.5 | 0.00 | 0.00 | 0.00 | 100 | 1015.8 |
| 20260504223552 | 27 | 94 | 6.4 | 17.7 | 0.00 | 0.00 | 0.00 | 100 | 1015.8 |
| 20260504223337 | 27 | 97 | 9.7 | 20.9 | 0.00 | 0.00 | 0.00 | 100 | 1015.8 |
| 20260504223052 | 27 | 97 | 9.7 | 20.9 | 0.00 | 0.00 | 0.00 | 100 | 1015.8 |
| 20260504222553 | 28 | 90 | 6.4 | 24.1 | 0.00 | 0.00 | 0.00 | 100 | 1015.7 |
| 20260504222129 | 28 | 90 | 6.4 | 24.1 | 0.00 | 0.00 | 0.00 | 100 | 1015.7 |
| 20260504222052 | 28 | 90 | 6.4 | 24.1 | 0.00 | 0.00 | 0.00 | 100 | 1015.7 |
| 20260504221934 | 27 | 102 | 12.9 | 19.3 | 0.00 | 0.00 | 0.00 | 100 | 1015.8 |
| 20260504221552 | 27 | 102 | 12.9 | 19.3 | 0.00 | 0.00 | 0.00 | 100 | 1015.8 |
| 20260504221052 | 28 | 143 | 9.7 | 14.5 | 0.00 | 0.00 | 0.00 | 100 | 1015.7 |
| 20260504220714 | 28 | 74 | 8.0 | 17.7 | 0.00 | 0.00 | 0.00 | 100 | 1015.8 |
| 20260504220552 | 28 | 74 | 8.0 | 17.7 | 0.00 | 0.00 | 0.00 | 100 | 1015.8 |
| 20260504220315 | 28 | 40 | 1.6 | 14.5 | 0.00 | 0.00 | 0.00 | 100 | 1015.8 |
| 20260504220052 | 28 | 40 | 1.6 | 14.5 | 0.00 | 0.00 | 0.00 | 100 | 1015.8 |
| 20260504215654 | 28 | 74 | 12.9 | 17.7 | 0.00 | 0.00 | 0.00 | 100 | 1015.8 |
| 20260504215552 | 28 | 74 | 12.9 | 17.7 | 0.00 | 0.00 | 0.00 | 100 | 1015.8 |
| 20260504215412 | 28 | 15 | 14.5 | 19.3 | 0.00 | 0.00 | 0.00 | 100 | 1015.6 |
| 20260504215137 | 28 | 15 | 14.5 | 19.3 | 0.00 | 0.00 | 0.00 | 100 | 1015.6 |
| 20260504215052 | 28 | 15 | 14.5 | 19.3 | 0.00 | 0.00 | 0.00 | 100 | 1015.6 |
| 20260504214552 | 28 | 97 | 11.3 | 20.9 | 0.00 | 0.00 | 0.00 | 100 | 1015.7 |
| 20260504214052 | 28 | 87 | 17.7 | 29.0 | 0.00 | 0.00 | 0.00 | 100 | 1015.8 |
| 20260504213820 | 28 | 102 | 14.5 | 17.7 | 0.00 | 0.00 | 0.00 | 100 | 1015.7 |
| 20260504213552 | 28 | 102 | 14.5 | 17.7 | 0.00 | 0.00 | 0.00 | 100 | 1015.7 |
| 20260504213244 | 28 | 95 | 11.3 | 14.5 | 0.00 | 0.00 | 0.00 | 100 | 1015.7 |
| 20260504213052 | 29 | 81 | 11.3 | 14.5 | 0.00 | 0.00 | 0.00 | 100 | 1015.7 |
| 20260504212552 | 28 | 95 | 11.3 | 14.5 | 0.00 | 0.00 | 0.00 | 100 | 1015.7 |
| 20260504212530 | 28 | 101 | 4.8 | 12.9 | 0.00 | 0.00 | 0.00 | 100 | 1015.8 |
| 20260504212052 | 28 | 156 | 4.8 | 8.0 | 0.00 | 0.00 | 0.00 | 100 | 1015.7 |
| 20260504211552 | 28 | 163 | 6.4 | 9.7 | 0.00 | 0.00 | 0.00 | 100 | 1015.8 |
| 20260504211320 | 28 | 101 | 4.8 | 12.9 | 0.00 | 0.00 | 0.00 | 100 | 1015.8 |
| 20260504211052 | 28 | 101 | 4.8 | 12.9 | 0.00 | 0.00 | 0.00 | 100 | 1015.8 |
| 20260504210958 | 28 | 101 | 9.7 | 14.5 | 0.00 | 0.00 | 0.00 | 100 | 1015.7 |
| 20260504210726 | 28 | 101 | 9.7 | 14.5 | 0.00 | 0.00 | 0.00 | 100 | 1015.7 |
| 20260504210552 | 28 | 101 | 9.7 | 14.5 | 0.00 | 0.00 | 0.00 | 100 | 1015.7 |
| 20260504210052 | 28 | 99 | 12.9 | 16.1 | 0.00 | 0.00 | 0.00 | 100 | 1015.9 |
| 20260504205841 | 28 | 102 | 11.3 | 17.7 | 0.00 | 0.00 | 0.00 | 100 | 1015.8 |
| 20260504205552 | 28 | 102 | 11.3 | 17.7 | 0.00 | 0.00 | 0.00 | 100 | 1015.8 |
| 20260504205052 | 28 | 97 | 14.5 | 22.5 | 0.00 | 0.00 | 0.00 | 100 | 1015.8 |
| 20260504204552 | 29 | 70 | 19.3 | 24.1 | 0.00 | 0.00 | 0.00 | 100 | 1015.8 |
| 20260504204207 | 29 | 140 | 6.4 | 11.3 | 0.00 | 0.00 | 0.00 | 100 | 1015.9 |
| 20260504204052 | 29 | 140 | 6.4 | 11.3 | 0.00 | 0.00 | 0.00 | 100 | 1015.9 |
| 20260504203943 | 28 | 137 | 3.2 | 16.1 | 0.00 | 0.00 | 0.00 | 100 | 1016.0 |
| 20260504203552 | 28 | 119 | 0.0 | 12.9 | 0.00 | 0.00 | 0.00 | 100 | 1015.9 |
| 20260504203052 | 28 | 52 | 8.0 | 16.1 | 0.00 | 0.00 | 0.00 | 100 | 1016.0 |
| 20260504202825 | 28 | 61 | 11.3 | 19.3 | 0.00 | 0.00 | 0.00 | 100 | 1016.0 |
| 20260504202552 | 28 | 61 | 11.3 | 19.3 | 0.00 | 0.00 | 0.00 | 100 | 1016.0 |
| 20260504202304 | 29 | 95 | 6.4 | 19.3 | 0.00 | 0.00 | 0.00 | 100 | 1016.1 |
| 20260504202052 | 29 | 95 | 6.4 | 19.3 | 0.00 | 0.00 | 0.00 | 100 | 1016.1 |
| 20260504201552 | 28 | 64 | 12.9 | 25.7 | 0.00 | 0.00 | 0.00 | 100 | 1016.0 |
| 20260504201341 | 28 | 137 | 3.2 | 16.1 | 0.00 | 0.00 | 0.00 | 100 | 1016.0 |
| 20260504201052 | 28 | 137 | 3.2 | 16.1 | 0.00 | 0.00 | 0.00 | 100 | 1016.0 |
| 20260504201015 | 29 | 112 | 8.0 | 16.1 | 0.00 | 0.00 | 0.00 | 100 | 1016.8 |
| 20260504201008 | 30 | 146 | 6.4 | 11.3 | 0.00 | 0.00 | 0.00 | 100 | 1016.1 |
| 20260504200552 | 30 | 146 | 6.4 | 11.3 | 0.00 | 0.00 | 0.00 | 100 | 1016.1 |
| 20260504200052 | 28 | 71 | 6.4 | 14.5 | 0.00 | 0.00 | 0.00 | 100 | 1016.2 |
| 20260504195552 | 28 | 104 | 4.8 | 17.7 | 0.00 | 0.00 | 0.00 | 100 | 1016.3 |
| 20260504195052 | 27 | 56 | 3.2 | 16.1 | 0.00 | 0.00 | 0.00 | 100 | 1016.4 |
| 20260504194858 | 27 | 78 | 11.3 | 20.9 | 0.00 | 0.00 | 0.00 | 100 | 1016.4 |
| 20260504194552 | 27 | 78 | 11.3 | 20.9 | 0.00 | 0.00 | 0.00 | 100 | 1016.4 |
| 20260504194052 | 29 | 87 | 11.3 | 17.7 | 0.00 | 0.00 | 0.00 | 100 | 1016.4 |
| 20260504193850 | 29 | 7 | 8.0 | 16.1 | 0.00 | 0.00 | 0.00 | 100 | 1016.4 |
| 20260504193552 | 29 | 7 | 8.0 | 16.1 | 0.00 | 0.00 | 0.00 | 100 | 1016.4 |
| 20260504193507 | 28 | 170 | 9.7 | 19.3 | 0.00 | 0.00 | 0.00 | 100 | 1016.3 |
| 20260504193052 | 28 | 170 | 9.7 | 19.3 | 0.00 | 0.00 | 0.00 | 100 | 1016.3 |
| 20260504192939 | 28 | 122 | 11.3 | 19.3 | 0.00 | 0.00 | 0.00 | 100 | 1016.5 |
| 20260504192552 | 28 | 122 | 11.3 | 19.3 | 0.00 | 0.00 | 0.00 | 100 | 1016.5 |
| 20260504192226 | 29 | 67 | 9.7 | 16.1 | 0.00 | 0.00 | 0.00 | 100 | 1016.5 |
| 20260504192052 | 29 | 67 | 9.7 | 16.1 | 0.00 | 0.00 | 0.00 | 100 | 1016.5 |
| 20260504191552 | 28 | 119 | 4.8 | 12.9 | 0.00 | 0.00 | 0.00 | 100 | 1016.6 |
| 20260504191052 | 28 | 120 | 9.7 | 17.7 | 0.00 | 0.00 | 0.00 | 100 | 1016.7 |
| 20260504190835 | 29 | 112 | 8.0 | 16.1 | 0.00 | 0.00 | 0.00 | 100 | 1016.8 |
| 20260504190553 | 29 | 112 | 8.0 | 16.1 | 0.00 | 0.00 | 0.00 | 100 | 1016.8 |
| 20260504190313 | 28 | 49 | 8.0 | 20.9 | 0.00 | 0.00 | 0.00 | 100 | 1016.9 |
| 20260504190053 | 28 | 49 | 8.0 | 20.9 | 0.00 | 0.00 | 0.00 | 100 | 1016.9 |
| 20260504185821 | 29 | 144 | 9.7 | 14.5 | 0.00 | 0.00 | 0.00 | 100 | 1017.0 |
| 20260504185553 | 29 | 144 | 9.7 | 14.5 | 0.00 | 0.00 | 0.00 | 100 | 1017.0 |
| 20260504185331 | 28 | 137 | 9.7 | 19.3 | 0.00 | 0.00 | 0.00 | 100 | 1017.1 |
| 20260504185053 | 28 | 137 | 9.7 | 19.3 | 0.00 | 0.00 | 0.00 | 100 | 1017.1 |
| 20260504184725 | 28 | 113 | 16.1 | 20.9 | 0.00 | 0.00 | 0.00 | 100 | 1017.2 |
| 20260504184553 | 28 | 113 | 16.1 | 20.9 | 0.00 | 0.00 | 0.00 | 100 | 1017.2 |
| 20260504184053 | 29 | 142 | 8.0 | 14.5 | 0.00 | 0.00 | 0.00 | 100 | 1017.2 |
| 20260504184004 | 28 | 99 | 11.3 | 22.5 | 0.00 | 0.00 | 0.00 | 100 | 1017.3 |
| 20260504183553 | 28 | 99 | 11.3 | 22.5 | 0.00 | 0.00 | 0.00 | 100 | 1017.3 |
| 20260504183313 | 28 | 67 | 1.6 | 12.9 | 0.00 | 0.00 | 0.00 | 100 | 1017.4 |
| 20260504183053 | 28 | 67 | 1.6 | 12.9 | 0.00 | 0.00 | 0.00 | 100 | 1017.4 |
| 20260504182553 | 28 | 142 | 6.4 | 22.5 | 0.00 | 0.00 | 0.00 | 100 | 1017.6 |
| 20260504182511 | 28 | 99 | 9.7 | 16.1 | 0.00 | 0.00 | 0.00 | 100 | 1017.7 |
| 20260504182242 | 28 | 99 | 9.7 | 16.1 | 0.00 | 0.00 | 0.00 | 100 | 1017.7 |
| 20260504182053 | 28 | 99 | 9.7 | 16.1 | 0.00 | 0.00 | 0.00 | 100 | 1017.7 |
| 20260504181553 | 28 | 81 | 8.0 | 16.1 | 0.00 | 0.00 | 0.00 | 100 | 1017.7 |
| 20260504181502 | 28 | 5 | 1.6 | 17.7 | 0.00 | 0.00 | 0.00 | 100 | 1017.7 |
| 20260504181053 | 28 | 5 | 1.6 | 17.7 | 0.00 | 0.00 | 0.00 | 100 | 1017.7 |
| 20260504180553 | 29 | 116 | 8.0 | 24.1 | 0.00 | 0.00 | 0.00 | 100 | 1017.7 |
| 20260504180541 | 28 | 120 | 3.2 | 17.7 | 0.00 | 0.00 | 0.00 | 100 | 1017.8 |
| 20260504180053 | 28 | 120 | 3.2 | 17.7 | 0.00 | 0.00 | 0.00 | 100 | 1017.8 |
| 20260504175815 | 28 | 88 | 9.7 | 19.3 | 0.00 | 0.00 | 0.00 | 100 | 1017.9 |
| 20260504175553 | 28 | 88 | 9.7 | 19.3 | 0.00 | 0.00 | 0.00 | 100 | 1017.9 |
| 20260504175121 | 27 | 23 | 12.9 | 22.5 | 0.00 | 0.00 | 0.00 | 100 | 1018.2 |
| 20260504175053 | 28 | 172 | 3.2 | 12.9 | 0.00 | 0.00 | 0.00 | 100 | 1017.9 |
| 20260504175000 | 28 | 75 | 11.3 | 17.7 | 0.00 | 0.00 | 0.00 | 100 | 1018.0 |
| 20260504174553 | 28 | 75 | 11.3 | 17.7 | 0.00 | 0.00 | 0.00 | 100 | 1018.0 |
| 20260504174053 | 28 | 60 | 11.3 | 20.9 | 0.00 | 0.00 | 0.00 | 100 | 1018.1 |
| 20260504173818 | 28 | 64 | 11.3 | 25.7 | 0.00 | 0.00 | 0.00 | 100 | 1018.1 |
| 20260504173553 | 28 | 64 | 11.3 | 25.7 | 0.00 | 0.00 | 0.00 | 100 | 1018.1 |
| 20260504173447 | 27 | 23 | 12.9 | 22.5 | 0.00 | 0.00 | 0.00 | 100 | 1018.2 |
| 20260504173053 | 27 | 23 | 12.9 | 22.5 | 0.00 | 0.00 | 0.00 | 100 | 1018.2 |
| 20260504172553 | 28 | 39 | 12.9 | 25.7 | 0.00 | 0.00 | 0.00 | 100 | 1018.1 |
| 20260504172053 | 28 | 70 | 8.0 | 25.7 | 0.00 | 0.00 | 0.00 | 100 | 1018.3 |
| 20260504171553 | 28 | 104 | 9.7 | 20.9 | 0.00 | 0.00 | 0.00 | 100 | 1018.4 |
| 20260504171059 | 27 | 102 | 8.0 | 20.9 | 0.00 | 0.00 | 0.00 | 100 | 1018.5 |
| 20260504171053 | 28 | 68 | 4.8 | 20.9 | 0.00 | 0.00 | 0.00 | 100 | 1018.3 |
| 20260504171016 | 28 | 63 | 16.1 | 20.9 | 0.00 | 0.00 | 0.00 | 100 | 1018.4 |
| 20260504170802 | 27 | 102 | 8.0 | 20.9 | 0.00 | 0.00 | 0.00 | 100 | 1018.5 |
| 20260504170553 | 28 | 63 | 16.1 | 20.9 | 0.00 | 0.00 | 0.00 | 100 | 1018.4 |
| 20260504160404 | 27 | 97 | 11.3 | 29.0 | 0.00 | 0.00 | 0.00 | 100 | 1019.1 |
| 20260504151053 | 26 | 75 | 6.4 | 20.9 | 0.00 | 0.00 | 0.00 | 100 | 1019.2 |
| 20260504150554 | 26 | 66 | 12.9 | 24.1 | 0.00 | 0.00 | 0.00 | 100 | 1019.2 |